Weather Service Report


397 
ASUS41 KBOX 240710
RWRBOX

REGIONAL WEATHER ROUNDUP
NATIONAL WEATHER SERVICE TAUNTON MA
200 AM EST MON NOV 24 2014

NOTE:  "FAIR" INDICATES FEW OR NO CLOUDS BELOW 12,000 FEET WITH NO 
SIGNIFICANT WEATHER AND/OR OBSTRUCTIONS TO VISIBILITY.  THE FOLLOWING 
OBSERVATION LOCATIONS DO NOT REPORT PRESENT WEATHER...PROVINCETOWN...
SMITHFIELD...BLOCK ISLAND...KEENE...AND OXFORD.

MAZALL-240800-
EASTERN MASSACHUSETTS
  
CITY           SKY/WX    TMP DP  RH WIND       PRES   REMARKS
BOSTON         CLOUDY    43  40  89 SE5       30.07F                  
BEVERLY        CLOUDY    42  36  79 SE3       30.06F                  
LAWRENCE       CLOUDY    44  34  67 CALM      30.08F                  
BEDFORD        CLOUDY    37  32  82 CALM      30.05F                  
BLUE HILL        N/A     44  43  96 SE15      30.04F                  
NORWOOD        CLOUDY    35  33  92 CALM      30.06F                  
MARSHFIELD     CLOUDY   N/A N/A N/A CALM      30.09F                  
PLYMOUTH       CLOUDY    48  48 100 SE3       30.08S FOG              
TAUNTON        CLOUDY    38  35  89 CALM      30.06F                  
NEW BEDFORD    FOG       40  39  97 CALM      30.06F VSB 1/4          
$$

MAZALL-240800-
CAPE COD AND THE ISLANDS
  
CITY           SKY/WX    TMP DP  RH WIND       PRES   REMARKS
FALMOUTH       CLOUDY    50  50 100 SE9       30.08F FOG              
HYANNIS        MOCLDY    51  49  92 SE8       30.08F                  
CHATHAM        PTCLDY    50  49  96 S8        30.12S                  
PROVINCETOWN   MOCLDY    50  48  93 S9        30.09F                  
NANTUCKET      MOCLDY    51  49  92 SE12      30.11F                  
MARTHAS VNYRD  MOCLDY    53  52  96 SE12      30.07F                  
$$
 
MAZALL-240800-
CENTRAL AND WESTERN MASSACHUSETTS
  
CITY           SKY/WX    TMP DP  RH WIND       PRES   REMARKS
WORCESTER      CLOUDY    43  38  82 S7        30.03S                  
FITCHBURG      CLOUDY    37  32  82 NW3       30.05F                  
ORANGE         MOCLDY    32  30  92 CALM      30.01F                  
SPRINGFIELD    CLOUDY    41  32  70 NE2       30.00F                  
WESTFIELD      CLOUDY    41  32  70 NW3       29.99F                  
NORTH ADAMS    MOCLDY    42  34  73 E14G23    29.95F                  
PITTSFIELD     CLOUDY    37  34  89 NE5       29.93F                  
$$
 
RIZALL-240800-
RHODE ISLAND
  
CITY           SKY/WX    TMP DP  RH WIND       PRES   REMARKS
PROVIDENCE     CLOUDY    41  37  86 N3        30.05F                  
NEWPORT        CLOUDY    54  51  90 SE10      30.04F                  
BLOCK ISLAND   CLOUDY    55  52  88 SE14      30.03F                  
SMITHFIELD     CLOUDY    45  37  76 SE5       30.04S                  
WESTERLY       MOCLDY    40  37  89 CALM      30.03F                  
$$
 
CTZALL-240800-
CONNECTICUT
  
CITY           SKY/WX    TMP DP  RH WIND       PRES   REMARKS
BRADLEY INTL   CLOUDY    44  33  65 N5        29.99F                  
HARTFORD       CLOUDY    45  34  65 VRB5      29.99F                  
BRIDGEPORT     LGT RAIN  50  48  93 NE13      29.95F                  
DANBURY        LGT RAIN  43  38  82 CALM      29.96F                  
GROTON         CLOUDY    51  50  96 E10       30.00F                  
NEW HAVEN      CLOUDY    56  50  80 E9        29.96F                  
CHESTER        CLOUDY    48  46  93 SE5       29.99F FOG              
MERIDEN        CLOUDY    44  35  70 N3        29.98F                  
WILLIMANTIC    CLOUDY    39  31  72 CALM      30.02F                  
OXFORD         CLOUDY    50  45  81 SE10      29.96F                  
$$

MEZ002-015-021-024-NHZ003-005-008-011-012-014-VTZ005-008-240800-
NORTHERN NEW ENGLAND
  
CITY           SKY/WX    TMP DP  RH WIND       PRES   REMARKS
PORTLAND ME    CLEAR     40  39  97 CALM      30.07F                  
BANGOR ME      CLOUDY    42  40  92 S5        30.11F                  
CONCORD NH     MOCLDY    35  34  96 CALM      30.04F                  
MANCHESTER NH  CLOUDY    42  32  67 CALM      30.03F                  
NASHUA NH      CLOUDY    38  34  85 CALM      30.06F                  
PORTSMOUTH NH  CLOUDY    41  36  80 SE7       30.05F                  
JAFFREY NH     CLOUDY    32  29  88 CALM      30.02F                  
KEENE NH       CLOUDY    32  30  93 CALM      30.02F                  
BURLINGTON VT  MOCLDY    50  38  63 SE5       29.88F                  
MT. WASHINGTON PTCLDY    32  25  74 SW36        N/A  WCI  16          
$$

NYZ052-076-240800-
EASTERN NEW YORK
  
CITY           SKY/WX    TMP DP  RH WIND       PRES   REMARKS
ALBANY         CLOUDY    51  35  54 S12       29.90F                  
NEW YORK CITY  LGT RAIN  50  48  93 E8        29.88F FOG              
$$
 
ANZALL-240800-
MARINE OBSERVATIONS
  
STATION/POSITION TIME  TEMP    WIND        PRES    VSBY  WAVE
                       AIR SEA DIR/SP/G                  HT/PER
                 (UTC) (F)     (DEG/KT/KT) (MB)    (MI)  (FT/S)
BOSTON BUOY      0650   49 50  160/ 10/ 12 1018.3F         1/ 3
BUZZARDS BAY     0600          150/ 14/ 15 1018.8F
NANTUCKET SOUND  0650   50 48  140/ 12/ 12 1018.9F         1
MASS BAY-STELLWA 0604   49 50  180/  8/ 10   N/A    1 7/8  1/ 3
ISLE OF SHOALS   0700   49     180/ 12/ 13 1017.4F
S OF BLOCK IS    0608      56                N/A           4/ 7
$$

......................KEY.........................
  SKY/WX - SKY CONDITION/PRESENT WEATHER
  TMP    - TEMPERATURE IN FAHRENHEIT
  DWPT   - DEWPOINT IN FAHRENHEIT
  RH     - RELATIVE HUMIDITY IN PERCENT
  WIND   - DIRECTION AND SPEED IN MPH
  PRES   - MEAN SEA LEVEL PRESSURE IN INCHES OF HG
  WCI    - WIND CHILL INDEX
  VSB    - VISIBILITY IN MILES
  HX     - HEAT INDEX
  TC     - TEMPERATURE IN CELSIUS
  VRB    - VARIABLE WIND DIRECTION
  N/A    - NOT AVAILABLE

Return to Home page


Western Regional Climate Center, wrcc@dri.edu